FENGYUN 4B

Last updated on Sat Jun 14 2025 00:02:48 GMT+0000 (Coordinated Universal Time)

1 48808U 21047A 25164.59419802 -.00000316 00000+0 00000+0 0 9997 2 48808 0.0226 325.4352 0002374 9.6721 245.7096 1.00273132 14888
UTC large
Height (km)
Speed (km/s)
/
Latitude / Longitude
Inclination (degrees)
Orbital Period (minutes)
Azimuth
Elevation
Range (km)
Doppler Factor

Next 0 passes for location: London (51.5072 / 0.1276)

Sorry there are no passes over London.